[[{"header":{"parameterUnit":"m.s-1","parameterCategory":2,"la1":30.2991,"la2":30.254,"lo1":-89.0895,"lo2":-89.0444,"dy":0.0017,"dx":0.0017,"nx":28,"ny":28,"refTime":"2025-06-09T03:00:00:Z","depth":"0","parameterNumber":2,"parameterNumberName":"U-component_of_CURRENTS"},"data":[0,0,0,0,0,0,0,0,0,0,0,0,0,0,0,0,0,0,0,0,0,0,0,0,0,0,0,0,0,0,0,0,0,0,0,0,0,0,0,0,0,0,0,0,0,0,0,0,0,0,0,0,0,0,0,0,0,0,-0.3836,-0.3836,0,-0.3765,-0.3763,-0.3761,-0.3708,-0.3708,-0.3709,-0.3709,-0.3585,-0.3581,-0.3578,0,0,0,0,0,0,0,0,0,0,0,0,0,-0.3766,-0.3767,-0.3836,-0.3836,-0.3836,-0.3765,-0.3763,-0.3761,-0.3708,-0.3708,-0.3709,-0.3709,-0.3586,-0.3582,-0.3577,0,0,0,0,0,0,0,0,0,0,0,0,0,-0.3746,-0.3768,-0.3836,-0.3808,-0.3806,-0.3765,-0.3763,-0.376,-0.3707,-0.3708,-0.3709,-0.371,-0.3588,-0.3582,-0.3577,-0.3528,0,0,-0.3559,-0.3557,0,0,0,0,0,0,0,0,-0.3747,-0.3747,-0.3812,-0.381,-0.3808,-0.3755,-0.3693,-0.3684,-0.3707,-0.3734,-0.3709,-0.371,-0.3643,-0.3633,-0.3604,-0.3522,-0.3516,-0.3559,-0.3556,-0.3553,-0.3552,0,0,0,0,0,0,0,-0.3749,-0.3749,-0.3797,-0.3813,-0.381,-0.3746,-0.3744,-0.369,-0.3676,-0.3731,-0.373,-0.3739,-0.364,-0.3609,-0.3601,-0.3515,-0.3559,-0.3554,-0.3551,-0.3548,-0.3379,-0.3378,0,0,0,0,0,0,-0.3787,-0.3752,-0.3799,-0.3796,-0.3791,-0.3748,-0.3745,-0.3763,-0.3678,-0.3669,-0.3738,-0.3737,-0.3619,-0.3607,-0.3596,-0.3548,-0.3553,-0.3548,-0.3545,-0.338,-0.3378,-0.3377,0,0,0,0,0,0,-0.3786,-0.3792,-0.3802,-0.3779,-0.3778,-0.3751,-0.3769,-0.3761,-0.3741,-0.3686,-0.3674,-0.3729,-0.3619,-0.3604,-0.3547,-0.3542,-0.3545,-0.354,-0.3381,-0.3379,-0.3378,-0.3441,0,0,0,0,0,0,-0.3784,-0.3792,-0.3804,-0.3783,-0.3781,-0.3782,-0.3769,-0.376,-0.375,-0.3747,-0.3673,-0.3662,-0.3618,-0.3556,-0.3542,-0.3534,-0.3536,-0.3383,-0.338,-0.3378,-0.3441,-0.3442,-0.3443,0,0,0,0,0,-0.3782,-0.3797,-0.3805,-0.3811,-0.3804,-0.3783,-0.3774,-0.3749,-0.3749,-0.3733,-0.3685,-0.3665,-0.3532,-0.355,-0.3534,-0.3525,-0.3384,-0.3381,-0.3379,-0.344,-0.3442,-0.3443,0,0,0,0,0,0,-0.3762,-0.3794,-0.3802,-0.3824,-0.3811,-0.3779,-0.3766,-0.3756,-0.3704,-0.3701,-0.3648,-0.3632,-0.3582,-0.3538,-0.356,-0.3467,-0.3455,-0.3449,-0.3507,-0.3508,-0.3509,-0.3519,-0.3531,0,0,0,0,0,-0.3771,-0.3796,-0.3803,-0.3817,-0.3818,-0.3795,-0.3783,-0.3769,-0.3732,-0.371,-0.3662,-0.3605,-0.3554,-0.3523,-0.3467,-0.3414,-0.3337,-0.3395,-0.3397,-0.3398,-0.3392,-0.3227,-0.3212,-0.3369,-0.3369,-0.3369,0,0,-0.3768,-0.3789,-0.3802,-0.3815,-0.3802,-0.3794,-0.3786,-0.3773,-0.3758,-0.3704,-0.3655,-0.3609,-0.3541,-0.3485,-0.3458,-0.345,-0.3323,-0.3395,-0.3397,-0.339,-0.3222,-0.3207,-0.3193,-0.3367,-0.3367,-0.3368,0,0,-0.3764,-0.3793,-0.3807,-0.3804,-0.3805,-0.3792,-0.3798,-0.3769,-0.375,-0.3703,-0.3665,-0.362,-0.353,-0.3486,-0.3453,-0.3424,-0.3338,-0.3403,-0.3412,-0.3253,-0.3238,-0.3224,-0.3155,-0.3134,-0.34,-0.34,-0.34,0,-0.3746,-0.3777,-0.3799,-0.3803,-0.3795,-0.3799,-0.3785,-0.3771,-0.3723,-0.3674,-0.3694,-0.3538,-0.3532,-0.3432,-0.3459,-0.3431,-0.3337,-0.3421,-0.3254,-0.3238,-0.3223,-0.3154,-0.3131,-0.3402,-0.3402,-0.3402,-0.3402,0,-0.3754,-0.3768,-0.3771,-0.3787,-0.3777,-0.3766,-0.3765,-0.3734,-0.3718,-0.3676,-0.3576,-0.3543,-0.3437,-0.3451,-0.347,-0.3357,-0.333,-0.3279,-0.3255,-0.3211,-0.3142,-0.3117,-0.3406,-0.3405,-0.3405,-0.3404,0,0,-0.3717,-0.3766,-0.3763,-0.3733,-0.3764,-0.3723,-0.3727,-0.3671,-0.3587,-0.3574,-0.3445,-0.3456,-0.3411,-0.3374,-0.3362,-0.3286,-0.3185,-0.3261,-0.3252,-0.3204,-0.2863,-0.2797,-0.2763,-0.3073,-0.3068,-0.3063,-0.2878,0,-0.3697,-0.369,-0.3735,-0.3683,-0.3655,-0.3663,-0.3627,-0.3576,-0.3526,-0.3403,-0.3381,-0.3268,-0.3385,-0.3318,-0.327,-0.3185,-0.3109,-0.3243,-0.2903,-0.2895,-0.2847,-0.2727,-0.2583,-0.2396,-0.2852,-0.2847,-0.2844,0,-0.3681,-0.3663,-0.364,-0.3563,-0.3547,-0.3523,-0.34,-0.3369,-0.3258,-0.3207,-0.3126,-0.3079,-0.3033,-0.3095,-0.295,-0.3013,-0.2959,-0.2909,-0.2897,-0.2787,-0.2776,-0.2501,-0.2332,-0.2336,-0.2804,-0.2807,-0.281,0,-0.3592,-0.3573,-0.3539,-0.3529,-0.3473,-0.3427,-0.3382,-0.3288,-0.319,-0.3069,-0.2963,-0.2879,-0.2807,-0.2722,-0.275,-0.2792,-0.2549,-0.2564,-0.2449,-0.2448,-0.2236,-0.2223,-0.203,-0.2394,-0.2395,-0.2395,-0.2396,0,-0.3537,-0.348,-0.3481,-0.3443,-0.3302,-0.3315,-0.315,-0.3095,-0.297,-0.2814,-0.2847,-0.2719,-0.2697,-0.2597,-0.2618,-0.2473,-0.2433,-0.2418,-0.2356,-0.2262,-0.2254,-0.2178,-0.2243,-0.2389,-0.239,-0.2391,-0.2393,0,-0.3422,-0.3465,-0.3366,-0.3302,-0.3265,-0.3149,-0.3011,-0.2872,-0.282,-0.2622,-0.258,-0.253,-0.2429,-0.2413,-0.227,-0.2273,-0.2104,-0.2112,-0.2071,-0.2006,-0.1893,-0.1968,-0.1722,-0.1678,-0.1903,-0.19,-0.1897,0,-0.3351,-0.3314,-0.3233,-0.3137,-0.3102,-0.296,-0.285,-0.2788,-0.2668,-0.2516,-0.2408,-0.2284,-0.2147,-0.197,-0.1945,-0.185,-0.194,-0.1688,-0.1743,-0.1828,-0.1864,-0.1954,-0.1944,-0.1516,-0.1511,-0.1506,-0.1502,0,-0.313,-0.314,-0.3055,-0.2898,-0.2781,-0.2629,-0.2502,-0.2386,-0.2315,-0.2166,-0.1955,-0.1824,-0.1735,-0.1554,-0.1519,-0.1509,-0.1638,-0.1587,-0.1613,-0.1484,-0.1617,-0.1565,-0.1798,-0.1461,-0.1465,-0.1468,-0.147,-0.1472,-0.2915,-0.2806,-0.2709,-0.2547,-0.244,-0.2253,-0.206,-0.1975,-0.1744,-0.1476,-0.1498,-0.1193,-0.1127,-0.1034,-0.112,-0.1173,-0.1307,-0.115,-0.1222,-0.1299,-0.127,-0.1473,-0.1106,-0.1108,-0.111,-0.1111,-0.1113,0,-0.2534,-0.2465,-0.232,-0.2108,-0.1929,-0.1966,-0.1763,-0.1562,-0.1275,-0.1086,-0.0825,-0.0418,-0.0399,-0.0543,-0.0719,-0.0792,-0.0861,-0.0854,-0.0934,-0.0931,-0.1003,-0.1001,-0.0664,-0.0664,-0.0664,-0.0664,-0.0664,-0.0664,-0.2296,-0.2058,-0.2018,-0.1629,-0.1524,-0.1202,-0.1057,-0.0859,-0.0668,-0.0229,0.0063,0.0243,0.0119,-0.0274,-0.06,-0.0673,-0.075,-0.0724,-0.0834,-0.0905,-0.094,-0.0973,-0.0982,-0.0647,-0.0647,-0.0683,-0.0684,-0.0684]},{"header":{"parameterUnit":"m.s-1","parameterCategory":2,"la1":30.2991,"la2":30.254,"lo1":-89.0895,"lo2":-89.0444,"dy":0.0017,"dx":0.0017,"nx":28,"ny":28,"refTime":"2025-06-09T03:00:00:Z","depth":"0","parameterNumber":3,"parameterNumberName":"V-component_of_CURRENTS"},"data":[0,0,0,0,0,0,0,0,0,0,0,0,0,0,0,0,0,0,0,0,0,0,0,0,0,0,0,0,0,0,0,0,0,0,0,0,0,0,0,0,0,0,0,0,0,0,0,0,0,0,0,0,0,0,0,0,0,0,-0.1016,-0.1015,0,-0.0829,-0.0826,-0.0824,-0.0679,-0.0678,-0.0677,-0.0675,-0.0474,-0.047,-0.0466,0,0,0,0,0,0,0,0,0,0,0,0,0,-0.1157,-0.1156,-0.1017,-0.1014,-0.1012,-0.0829,-0.0826,-0.0824,-0.068,-0.0678,-0.0676,-0.0675,-0.0475,-0.047,-0.0466,0,0,0,0,0,0,0,0,0,0,0,0,0,-0.1046,-0.1156,-0.1017,-0.0918,-0.0907,-0.0829,-0.0826,-0.0823,-0.068,-0.0678,-0.0676,-0.0674,-0.0477,-0.0471,-0.0465,-0.0468,0,0,-0.0446,-0.0443,0,0,0,0,0,0,0,0,-0.1052,-0.1041,-0.0935,-0.0925,-0.0913,-0.0775,-0.0802,-0.0704,-0.068,-0.0766,-0.0675,-0.0673,-0.0575,-0.0561,-0.053,-0.0458,-0.045,-0.0446,-0.0442,-0.0439,-0.0437,0,0,0,0,0,0,0,-0.106,-0.1047,-0.0942,-0.0933,-0.0919,-0.0851,-0.0834,-0.0782,-0.0684,-0.0758,-0.0748,-0.0727,-0.0569,-0.0536,-0.0524,-0.0447,-0.0446,-0.044,-0.0436,-0.0434,-0.0364,-0.0366,0,0,0,0,0,0,-0.1091,-0.1056,-0.0948,-0.0936,-0.0979,-0.0851,-0.0831,-0.0821,-0.0684,-0.0662,-0.0729,-0.0721,-0.0548,-0.0531,-0.0517,-0.0484,-0.0439,-0.0433,-0.043,-0.0363,-0.0365,-0.0367,0,0,0,0,0,0,-0.1095,-0.1084,-0.0956,-0.0991,-0.097,-0.0851,-0.0841,-0.0819,-0.0782,-0.0663,-0.0639,-0.0715,-0.0545,-0.0525,-0.0485,-0.0476,-0.0431,-0.0425,-0.036,-0.0363,-0.0366,-0.0437,0,0,0,0,0,0,-0.11,-0.1087,-0.1099,-0.0994,-0.0969,-0.0927,-0.0842,-0.0817,-0.0773,-0.0761,-0.0643,-0.0622,-0.0542,-0.0495,-0.0479,-0.0467,-0.042,-0.0358,-0.0362,-0.0365,-0.0433,-0.0442,-0.045,0,0,0,0,0,-0.1106,-0.1132,-0.1102,-0.1088,-0.0988,-0.0928,-0.091,-0.0817,-0.0776,-0.0775,-0.0699,-0.0626,-0.0505,-0.0492,-0.0473,-0.0458,-0.0356,-0.0361,-0.0365,-0.0429,-0.044,-0.045,0,0,0,0,0,0,-0.1202,-0.1117,-0.1081,-0.1081,-0.1018,-0.0904,-0.0896,-0.0835,-0.0773,-0.0762,-0.0649,-0.0624,-0.0586,-0.0533,-0.0522,-0.0456,-0.0419,-0.042,-0.0475,-0.0485,-0.0493,-0.042,-0.0415,0,0,0,0,0,-0.1233,-0.1233,-0.1135,-0.1143,-0.1114,-0.1012,-0.0978,-0.0917,-0.0842,-0.0811,-0.073,-0.0655,-0.0591,-0.0548,-0.0496,-0.0461,-0.0358,-0.0444,-0.0453,-0.046,-0.0393,-0.0208,-0.0191,-0.038,-0.038,-0.038,0,0,-0.1278,-0.123,-0.1232,-0.1165,-0.1107,-0.1064,-0.0987,-0.0949,-0.0902,-0.0803,-0.0742,-0.0691,-0.0597,-0.0551,-0.0529,-0.0498,-0.0384,-0.0465,-0.0472,-0.0398,-0.021,-0.019,-0.0172,-0.0383,-0.0383,-0.0382,0,0,-0.1346,-0.1321,-0.1327,-0.1277,-0.12,-0.1131,-0.1128,-0.1026,-0.097,-0.0928,-0.0834,-0.0758,-0.0701,-0.0583,-0.0527,-0.0555,-0.0448,-0.0584,-0.0541,-0.0366,-0.0346,-0.0326,-0.0291,-0.0267,-0.0572,-0.0572,-0.0573,0,-0.1401,-0.1371,-0.1324,-0.1299,-0.1243,-0.1166,-0.1126,-0.1076,-0.0976,-0.0897,-0.0929,-0.0736,-0.0687,-0.0522,-0.0551,-0.0559,-0.0497,-0.0505,-0.0368,-0.0346,-0.0324,-0.0291,-0.0264,-0.0576,-0.0576,-0.0575,-0.0575,0,-0.1446,-0.1413,-0.1415,-0.1346,-0.13,-0.1263,-0.1168,-0.1118,-0.1063,-0.097,-0.0837,-0.076,-0.0607,-0.0624,-0.0601,-0.0429,-0.0457,-0.041,-0.0324,-0.0308,-0.0279,-0.0249,-0.0582,-0.0581,-0.0579,-0.0578,0,0,-0.1561,-0.1459,-0.1454,-0.1385,-0.1302,-0.1248,-0.119,-0.1049,-0.0936,-0.0888,-0.0718,-0.0646,-0.0563,-0.0493,-0.0438,-0.0311,-0.0192,-0.0316,-0.0305,-0.0252,0.0099,0.0034,0.006,-0.0116,-0.0108,-0.0103,0.0017,0,-0.1586,-0.152,-0.1468,-0.1386,-0.1318,-0.1219,-0.1143,-0.1019,-0.0917,-0.076,-0.063,-0.0495,-0.0525,-0.0453,-0.0325,-0.0207,-0.0097,-0.0233,0.0055,0.0063,0.0033,0.0102,0.018,0.0295,0.0047,0.0052,0.0055,0,-0.1623,-0.1548,-0.1469,-0.1301,-0.1263,-0.1218,-0.1006,-0.0931,-0.0715,-0.063,-0.0455,-0.036,-0.0175,-0.0213,0.0054,-0.004,0.0035,0.0105,0.0114,0.0136,0.0062,0.0261,0.036,0.0495,0.0103,0.0099,0.0096,0,-0.1647,-0.1537,-0.1451,-0.1406,-0.1237,-0.1163,-0.1074,-0.0877,-0.0765,-0.0528,-0.043,-0.0186,-0.0088,0.0101,0.0159,0.0146,0.0412,0.0434,0.0451,0.044,0.0616,0.0611,0.0936,0.0678,0.0677,0.0677,0.0677,0,-0.1653,-0.1578,-0.1453,-0.1391,-0.1259,-0.1157,-0.0994,-0.0864,-0.0668,-0.0515,-0.036,-0.0215,0.0001,0.0139,0.0233,0.0391,0.0481,0.0505,0.0522,0.0568,0.0557,0.077,0.0789,0.0681,0.0681,0.068,0.0679,0,-0.1669,-0.1603,-0.1478,-0.1309,-0.1263,-0.1166,-0.0994,-0.0863,-0.0705,-0.0506,-0.044,-0.0214,-0.0027,0.0119,0.0385,0.0456,0.0723,0.0657,0.0601,0.0612,0.0798,0.0806,0.1125,0.1234,0.0787,0.0787,0.0787,0,-0.1654,-0.1598,-0.1433,-0.1363,-0.1288,-0.1156,-0.1056,-0.0893,-0.0771,-0.0515,-0.0421,-0.0213,-0.0015,0.0277,0.0442,0.0638,0.0729,0.0794,0.0844,0.0869,0.0894,0.0876,0.0945,0.099,0.0991,0.0993,0.0994,0,-0.1587,-0.1548,-0.1433,-0.1304,-0.1209,-0.1093,-0.096,-0.0884,-0.069,-0.0533,-0.0308,-0.0128,0.0127,0.0413,0.059,0.0709,0.0923,0.0826,0.0972,0.1199,0.1103,0.119,0.072,0.1006,0.1004,0.1004,0.1003,0.1002,-0.1515,-0.1438,-0.1303,-0.1176,-0.1092,-0.0984,-0.0865,-0.0758,-0.0574,-0.0296,-0.0225,0.0098,0.0463,0.0777,0.0821,0.1059,0.1025,0.1217,0.1246,0.1239,0.1328,0.0787,0.1012,0.1011,0.101,0.1009,0.1008,0,-0.1348,-0.1275,-0.117,-0.0994,-0.0882,-0.0876,-0.0736,-0.0602,-0.0392,-0.0203,0.0026,0.0546,0.0877,0.1118,0.141,0.1518,0.1558,0.1579,0.1668,0.174,0.1412,0.1406,0.1586,0.1586,0.1586,0.1586,0.1586,0.1586,-0.1234,-0.1079,-0.1025,-0.0789,-0.0704,-0.0514,-0.0425,-0.0288,-0.0128,0.0237,0.0542,0.0783,0.1247,0.1608,0.1873,0.1908,0.2085,0.2001,0.2073,0.1908,0.1879,0.1851,0.1859,0.2132,0.2132,0.246,0.2463,0.2465]}],[{"header":{"parameterUnit":"m.s-1","parameterCategory":2,"la1":30.2991,"la2":30.254,"lo1":-89.0895,"lo2":-89.0444,"dy":0.0017,"dx":0.0017,"nx":28,"ny":28,"refTime":"2025-06-09T03:00:00:Z","depth":"2","parameterNumber":2,"parameterNumberName":"U-component_of_CURRENTS"},"data":[0,0,0,0,0,0,0,0,0,0,0,0,0,0,0,0,0,0,0,0,0,0,0,0,0,0,0,0,0,0,0,0,0,0,0,0,0,0,0,0,0,0,0,0,0,0,0,0,0,0,0,0,0,0,0,0,0,0,-0.2407,-0.2408,0,-0.2443,-0.2443,-0.2444,-0.2457,-0.2457,-0.2457,-0.2457,-0.2491,-0.2492,-0.2493,0,0,0,0,0,0,0,0,0,0,0,0,0,-0.233,-0.2331,-0.2407,-0.2408,-0.2408,-0.2443,-0.2443,-0.2444,-0.2457,-0.2457,-0.2457,-0.2457,-0.2491,-0.2492,-0.2493,0,0,0,0,0,0,0,0,0,0,0,0,0,-0.2362,-0.2332,-0.2407,-0.2421,-0.2422,-0.2443,-0.2444,-0.2444,-0.2457,-0.2457,-0.2457,-0.2457,-0.2491,-0.2492,-0.2493,-0.2498,0,0,-0.2497,-0.2497,0,0,0,0,0,0,0,0,-0.2361,-0.2365,-0.2418,-0.242,-0.2422,-0.2448,-0.2429,-0.2463,-0.2457,-0.2442,-0.2457,-0.2457,-0.2478,-0.248,-0.2484,-0.25,-0.2501,-0.2497,-0.2498,-0.2498,-0.2499,0,0,0,0,0,0,0,-0.2358,-0.2363,-0.2419,-0.2419,-0.2421,-0.2419,-0.2423,-0.2435,-0.2457,-0.2443,-0.2445,-0.2452,-0.2478,-0.2482,-0.2484,-0.2502,-0.2497,-0.2498,-0.2499,-0.2499,-0.2538,-0.2539,0,0,0,0,0,0,-0.2359,-0.2362,-0.2418,-0.2421,-0.2393,-0.242,-0.2425,-0.2437,-0.2457,-0.2461,-0.2452,-0.2452,-0.248,-0.2483,-0.2486,-0.2542,-0.2498,-0.2499,-0.25,-0.2538,-0.2538,-0.2539,0,0,0,0,0,0,-0.2358,-0.2364,-0.2417,-0.2393,-0.24,-0.2422,-0.2435,-0.2438,-0.2449,-0.2464,-0.2467,-0.2461,-0.248,-0.2484,-0.2507,-0.2542,-0.25,-0.2501,-0.2538,-0.2538,-0.2538,-0.2625,0,0,0,0,0,0,-0.2355,-0.2363,-0.2369,-0.2393,-0.2401,-0.2446,-0.2435,-0.2439,-0.2454,-0.2456,-0.2473,-0.2476,-0.2481,-0.2505,-0.2508,-0.2543,-0.2502,-0.2537,-0.2538,-0.2538,-0.2621,-0.2628,-0.2633,0,0,0,0,0,-0.2352,-0.2366,-0.2369,-0.2376,-0.241,-0.2448,-0.2452,-0.2465,-0.2455,-0.2472,-0.2477,-0.2475,-0.251,-0.2507,-0.251,-0.2546,-0.2537,-0.2538,-0.2538,-0.2619,-0.2627,-0.2633,0,0,0,0,0,0,-0.2331,-0.237,-0.2374,-0.2397,-0.2427,-0.2451,-0.2461,-0.2468,-0.2484,-0.2484,-0.2485,-0.2489,-0.2523,-0.2512,-0.2508,-0.2553,-0.2521,-0.2522,-0.2581,-0.2588,-0.2594,-0.2589,-0.2503,0,0,0,0,0,-0.233,-0.235,-0.2388,-0.2403,-0.2419,-0.2438,-0.2451,-0.2469,-0.2487,-0.2493,-0.2503,-0.2509,-0.2526,-0.2539,-0.2549,-0.2577,-0.2537,-0.2596,-0.2602,-0.2608,-0.2603,-0.2585,-0.259,-0.2541,-0.2541,-0.2541,0,0,-0.2323,-0.2347,-0.2356,-0.24,-0.2416,-0.2462,-0.2446,-0.2479,-0.2516,-0.2495,-0.2534,-0.2534,-0.2536,-0.2573,-0.2585,-0.2572,-0.2595,-0.2609,-0.2614,-0.2606,-0.2587,-0.2591,-0.2596,-0.2541,-0.2541,-0.2541,0,0,-0.2335,-0.2343,-0.2375,-0.2408,-0.2451,-0.2473,-0.2486,-0.2523,-0.2536,-0.2574,-0.2568,-0.2585,-0.2606,-0.2623,-0.2631,-0.267,-0.2627,-0.2669,-0.2705,-0.2689,-0.2693,-0.2697,-0.2632,-0.2629,-0.2675,-0.2675,-0.2675,0,-0.2327,-0.2369,-0.2388,-0.2436,-0.2461,-0.2483,-0.2528,-0.2558,-0.2597,-0.2602,-0.2597,-0.262,-0.2634,-0.2672,-0.2692,-0.2689,-0.2647,-0.2687,-0.2699,-0.2702,-0.2703,-0.2637,-0.2632,-0.2679,-0.2679,-0.2678,-0.2678,0,-0.2376,-0.2409,-0.2428,-0.2497,-0.2531,-0.2568,-0.2619,-0.2653,-0.2662,-0.2674,-0.2701,-0.2711,-0.2721,-0.2734,-0.2733,-0.2757,-0.2709,-0.271,-0.2686,-0.2714,-0.2641,-0.2635,-0.2685,-0.2684,-0.2682,-0.2681,0,0,-0.2349,-0.2445,-0.2449,-0.2475,-0.2562,-0.2584,-0.2663,-0.2712,-0.2729,-0.2765,-0.2774,-0.282,-0.2801,-0.2807,-0.2806,-0.2798,-0.2784,-0.2764,-0.2761,-0.2708,-0.2704,-0.2564,-0.2543,-0.2788,-0.2787,-0.2787,-0.264,0,-0.2374,-0.2452,-0.2506,-0.2568,-0.2602,-0.2659,-0.2717,-0.2766,-0.2787,-0.2804,-0.2816,-0.2822,-0.2838,-0.2834,-0.2841,-0.2798,-0.2774,-0.2821,-0.2676,-0.2671,-0.2552,-0.2534,-0.2371,-0.2217,-0.2634,-0.2632,-0.2632,0,-0.2393,-0.2442,-0.2505,-0.2575,-0.2595,-0.2645,-0.2703,-0.2759,-0.2809,-0.2831,-0.2856,-0.2841,-0.2859,-0.2851,-0.2807,-0.2832,-0.2774,-0.2731,-0.2725,-0.2559,-0.252,-0.2259,-0.219,-0.2621,-0.2621,-0.2622,-0.2623,0,-0.2319,-0.2423,-0.2458,-0.2489,-0.2593,-0.2626,-0.268,-0.2747,-0.2776,-0.283,-0.2834,-0.2856,-0.2841,-0.281,-0.2731,-0.277,-0.2628,-0.2674,-0.2484,-0.2472,-0.2285,-0.2256,-0.2618,-0.2618,-0.2618,-0.2619,-0.2619,0,-0.2297,-0.2323,-0.2422,-0.2439,-0.247,-0.2566,-0.26,-0.2669,-0.2744,-0.2752,-0.2823,-0.281,-0.2828,-0.2748,-0.2705,-0.2546,-0.2609,-0.2466,-0.2426,-0.2305,-0.2281,-0.2601,-0.2602,-0.2613,-0.2614,-0.2615,-0.2616,0,-0.2196,-0.2274,-0.2299,-0.2398,-0.243,-0.2436,-0.2551,-0.2573,-0.2675,-0.269,-0.2703,-0.2753,-0.2656,-0.2604,-0.2511,-0.2473,-0.2358,-0.2277,-0.2104,-0.2047,-0.2223,-0.2229,-0.2082,-0.2076,-0.2071,-0.2067,-0.2063,0,-0.2151,-0.2152,-0.2225,-0.2238,-0.228,-0.2335,-0.2377,-0.2513,-0.2544,-0.2629,-0.2609,-0.2548,-0.2478,-0.2287,-0.2156,-0.2001,-0.2137,-0.18,-0.1866,-0.2192,-0.2169,-0.2183,-0.2196,-0.1642,-0.1635,-0.1629,-0.1625,0,-0.2029,-0.2043,-0.2061,-0.2094,-0.2125,-0.217,-0.2242,-0.226,-0.2398,-0.2424,-0.2414,-0.2364,-0.2186,-0.1956,-0.1756,-0.1664,-0.1827,-0.1681,-0.2047,-0.1808,-0.1766,-0.1747,-0.1776,-0.1575,-0.158,-0.1584,-0.1587,-0.1589,-0.1901,-0.1879,-0.1898,-0.1904,-0.1944,-0.1961,-0.1942,-0.2029,-0.2039,-0.2034,-0.2138,-0.2016,-0.1974,-0.1564,-0.1412,-0.1267,-0.1419,-0.1409,-0.1431,-0.1458,-0.1438,-0.1391,-0.1122,-0.1124,-0.1126,-0.1128,-0.113,0,-0.173,-0.1728,-0.1726,-0.1717,-0.1679,-0.1781,-0.181,-0.176,-0.1698,-0.1746,-0.1731,-0.1525,-0.1349,-0.1267,-0.0959,-0.0902,-0.0937,-0.0876,-0.0961,-0.1008,-0.1051,-0.1018,-0.0586,-0.0585,-0.0584,-0.0582,0,0,-0.164,-0.1565,-0.1562,-0.143,-0.1446,-0.1355,-0.1333,-0.1289,-0.1282,-0.1205,-0.1164,-0.1298,-0.1274,-0.098,-0.0875,-0.0685,-0.085,-0.0629,-0.1061,-0.1211,-0.1253,-0.1342,-0.1339,0,0,0,0,0]},{"header":{"parameterUnit":"m.s-1","parameterCategory":2,"la1":30.2991,"la2":30.254,"lo1":-89.0895,"lo2":-89.0444,"dy":0.0017,"dx":0.0017,"nx":28,"ny":28,"refTime":"2025-06-09T03:00:00:Z","depth":"2","parameterNumber":3,"parameterNumberName":"V-component_of_CURRENTS"},"data":[0,0,0,0,0,0,0,0,0,0,0,0,0,0,0,0,0,0,0,0,0,0,0,0,0,0,0,0,0,0,0,0,0,0,0,0,0,0,0,0,0,0,0,0,0,0,0,0,0,0,0,0,0,0,0,0,0,0,-0.0326,-0.0325,0,-0.0221,-0.022,-0.0218,-0.0163,-0.0163,-0.0163,-0.0163,-0.0018,-0.0014,-0.001,0,0,0,0,0,0,0,0,0,0,0,0,0,-0.0408,-0.0407,-0.0326,-0.0325,-0.0323,-0.0221,-0.0219,-0.0218,-0.0163,-0.0163,-0.0163,-0.0163,-0.0019,-0.0014,-0.001,0,0,0,0,0,0,0,0,0,0,0,0,0,-0.0345,-0.0407,-0.0326,-0.0283,-0.0278,-0.0221,-0.0219,-0.0218,-0.0163,-0.0163,-0.0163,-0.0163,-0.002,-0.0015,-0.0009,0.0021,0,0,0.0008,0.001,0,0,0,0,0,0,0,0,-0.0349,-0.0342,-0.0291,-0.0286,-0.028,-0.0204,-0.0195,-0.0136,-0.0163,-0.0208,-0.0163,-0.0163,-0.0076,-0.0066,-0.0048,0.0028,0.0034,0.0008,0.0012,0.0014,0.0016,0,0,0,0,0,0,0,-0.0353,-0.0346,-0.0285,-0.0289,-0.0283,-0.0244,-0.0236,-0.0183,-0.0144,-0.0204,-0.0199,-0.0187,-0.0073,-0.0054,-0.0044,0.0036,0.0008,0.0013,0.0017,0.0019,0.0159,0.0159,0,0,0,0,0,0,-0.0369,-0.0351,-0.0288,-0.0282,-0.0314,-0.0243,-0.0234,-0.0229,-0.0145,-0.0132,-0.0187,-0.0184,-0.0063,-0.0051,-0.0039,0.0004,0.0014,0.0019,0.0023,0.0159,0.0159,0.0159,0,0,0,0,0,0,-0.0371,-0.0365,-0.0292,-0.0313,-0.0301,-0.0243,-0.0238,-0.0227,-0.0207,-0.0133,-0.0119,-0.0177,-0.0063,-0.0047,0.0009,0.001,0.0022,0.0027,0.0158,0.0159,0.0159,0.0087,0,0,0,0,0,0,-0.0374,-0.0367,-0.0371,-0.0314,-0.03,-0.0266,-0.0237,-0.0226,-0.0199,-0.0195,-0.012,-0.0106,-0.0061,0.0001,0.0015,0.0017,0.0031,0.0158,0.0158,0.0159,0.0089,0.0085,0.0082,0,0,0,0,0,-0.0378,-0.0386,-0.0372,-0.0364,-0.0308,-0.0267,-0.0256,-0.0214,-0.02,-0.0194,-0.014,-0.0109,0.0015,0.0006,0.0022,0.0026,0.0157,0.0158,0.0159,0.0091,0.0086,0.0082,0,0,0,0,0,0,-0.042,-0.038,-0.0363,-0.0358,-0.0318,-0.0257,-0.0248,-0.0218,-0.0172,-0.0168,-0.01,-0.0082,-0.0033,0.0008,-0.0004,0.007,0.009,0.0094,0.0033,0.0029,0.0025,-0.0,0.0036,0,0,0,0,0,-0.0433,-0.0433,-0.038,-0.0377,-0.0361,-0.0306,-0.0285,-0.0256,-0.0206,-0.0186,-0.013,-0.0071,-0.0016,0.0014,0.0067,0.0109,0.0149,0.0122,0.0119,0.0115,0.0106,0.0153,0.0152,0.0162,0.0162,0.0162,0,0,-0.0447,-0.0426,-0.0424,-0.0386,-0.0354,-0.0336,-0.0293,-0.0267,-0.0248,-0.0176,-0.0135,-0.008,-0.0007,0.0038,0.0063,0.0072,0.0139,0.0116,0.0112,0.0106,0.0154,0.0153,0.0152,0.0163,0.0163,0.0162,0,0,-0.0481,-0.0458,-0.0471,-0.0442,-0.0401,-0.0362,-0.0358,-0.0299,-0.027,-0.0223,-0.0167,-0.0115,-0.0031,0.0018,0.0055,0.0065,0.0118,0.0084,0.0045,0.0091,0.009,0.0089,0.0157,0.0163,0.0081,0.008,0.008,0,-0.0501,-0.0508,-0.0466,-0.0465,-0.0447,-0.038,-0.0381,-0.0337,-0.0266,-0.0246,-0.022,-0.01,-0.0042,0.0017,0.002,0.0055,0.0095,0.0052,0.0083,0.0084,0.0085,0.0154,0.0162,0.0077,0.0078,0.0078,0.0078,0,-0.0543,-0.0542,-0.0544,-0.0524,-0.0497,-0.0487,-0.0422,-0.0389,-0.0345,-0.0301,-0.0237,-0.0151,-0.0083,-0.0054,-0.0012,0.0025,0.0059,0.0072,0.0087,0.0079,0.0153,0.0163,0.0072,0.0074,0.0075,0.0075,0,0,-0.0604,-0.0582,-0.0583,-0.0585,-0.053,-0.0514,-0.0477,-0.043,-0.0409,-0.0336,-0.0303,-0.0209,-0.0165,-0.0121,-0.0056,-0.0016,0.0033,0.0021,0.0025,0.0075,0.015,0.0177,0.0191,0.0046,0.0047,0.0047,0.0206,0,-0.0651,-0.0678,-0.0644,-0.0652,-0.0657,-0.0584,-0.0556,-0.0503,-0.044,-0.0389,-0.03,-0.0243,-0.0187,-0.0153,-0.0104,-0.0001,0.0051,-0.0009,0.0162,0.0167,0.0181,0.0199,0.0199,0.0339,0.0215,0.0217,0.0218,0,-0.0707,-0.0716,-0.0746,-0.0723,-0.0717,-0.0706,-0.0653,-0.0617,-0.0524,-0.0472,-0.0398,-0.0324,-0.0235,-0.0194,-0.003,-0.0072,0.0029,0.0108,0.0116,0.0168,0.0211,0.0326,0.0361,0.0234,0.0232,0.0231,0.023,0,-0.0786,-0.0785,-0.0817,-0.0809,-0.077,-0.0765,-0.0734,-0.0655,-0.0621,-0.0526,-0.0487,-0.0374,-0.0294,-0.018,-0.0008,-0.0022,0.0176,0.0181,0.0309,0.0314,0.0361,0.0367,0.0291,0.0291,0.0291,0.029,0.029,0,-0.0856,-0.0876,-0.086,-0.0877,-0.09,-0.0843,-0.084,-0.0781,-0.0699,-0.0656,-0.0541,-0.046,-0.0291,-0.0151,-0.0018,0.0184,0.0177,0.031,0.0352,0.0339,0.0342,0.0281,0.0277,0.0296,0.0295,0.0294,0.0293,0,-0.0934,-0.0929,-0.096,-0.0944,-0.0942,-0.0956,-0.0911,-0.0897,-0.0805,-0.0738,-0.071,-0.0516,-0.032,-0.0141,0.0082,0.0189,0.036,0.0436,0.0421,0.0457,0.0473,0.0464,0.0585,0.0587,0.0589,0.059,0.0592,0,-0.0977,-0.1004,-0.1019,-0.1043,-0.104,-0.1046,-0.1044,-0.0962,-0.0926,-0.0757,-0.0721,-0.0515,-0.033,0.0013,0.0228,0.0472,0.0455,0.0593,0.0555,0.0471,0.0501,0.0489,0.0478,0.061,0.0611,0.0612,0.0613,0,-0.1042,-0.1049,-0.1075,-0.1127,-0.1148,-0.1159,-0.1138,-0.1126,-0.1006,-0.0913,-0.0726,-0.0566,-0.02,0.01,0.0403,0.0533,0.0542,0.0623,0.0557,0.0517,0.0503,0.0529,0.0516,0.0623,0.0622,0.0621,0.0621,0.062,-0.108,-0.1121,-0.1156,-0.12,-0.1233,-0.1251,-0.1253,-0.1192,-0.1117,-0.0925,-0.0764,-0.0456,-0.0176,0.0299,0.0488,0.0669,0.067,0.0708,0.0701,0.0695,0.065,0.0637,0.0778,0.0778,0.0778,0.0778,0.0778,0,-0.1121,-0.1167,-0.1219,-0.1276,-0.132,-0.1312,-0.1296,-0.1255,-0.1157,-0.0895,-0.0687,-0.035,0.0011,0.0309,0.0624,0.0776,0.0744,0.0779,0.072,0.0711,0.0704,0.0655,0.0787,0.0787,0.0787,0.0787,0,0,-0.1149,-0.1211,-0.1237,-0.1324,-0.1367,-0.139,-0.1379,-0.1282,-0.1091,-0.083,-0.0552,-0.0266,0.0108,0.0296,0.0498,0.0675,0.0638,0.0673,0.066,0.056,0.0549,0.0669,0.0587,0,0,0,0,0]}],[{"header":{"parameterUnit":"m.s-1","parameterCategory":2,"la1":30.2991,"la2":30.254,"lo1":-89.0895,"lo2":-89.0444,"dy":0.0017,"dx":0.0017,"nx":28,"ny":28,"refTime":"2025-06-09T03:00:00:Z","depth":"4","parameterNumber":2,"parameterNumberName":"U-component_of_CURRENTS"},"data":[0,0,0,0,0,0,0,0,0,0,0,0,0,0,0,0,0,0,0,0,0,0,0,0,0,0,0,0,0,0,0,0,0,0,0,0,0,0,0,0,0,0,0,0,0,0,0,0,0,0,0,0,0,0,0,0,0,0,-0.166,-0.1661,0,-0.174,-0.1741,-0.1742,-0.1794,-0.1794,-0.1795,-0.1795,-0.1861,-0.1862,-0.1864,0,0,0,0,0,0,0,0,0,0,0,0,0,-0.158,-0.1581,-0.166,-0.1661,-0.1662,-0.174,-0.1741,-0.1742,-0.1794,-0.1794,-0.1795,-0.1795,-0.186,-0.1862,-0.1864,0,0,0,0,0,0,0,0,0,0,0,0,0,-0.1632,-0.1581,-0.166,-0.1698,-0.1702,-0.174,-0.1741,-0.1742,-0.1794,-0.1794,-0.1795,-0.1795,-0.186,-0.1862,-0.1864,-0.1866,0,0,-0.187,-0.1871,0,0,0,0,0,0,0,0,-0.1629,-0.1635,-0.1691,-0.1695,-0.17,-0.1758,-0.1737,-0.1783,-0.1794,-0.1759,-0.1795,-0.1796,-0.1825,-0.183,-0.1843,-0.1869,-0.1872,-0.1871,-0.1872,-0.1873,-0.1873,0,0,0,0,0,0,0,-0.1625,-0.1632,-0.1691,-0.1692,-0.1698,-0.172,-0.1728,-0.1746,-0.1787,-0.1762,-0.1766,-0.1775,-0.1827,-0.1841,-0.1845,-0.1873,-0.187,-0.1872,-0.1874,-0.1874,-0.1995,-0.1996,0,0,0,0,0,0,-0.1614,-0.1628,-0.1689,-0.1694,-0.1665,-0.1721,-0.1729,-0.1738,-0.1787,-0.1796,-0.1774,-0.1777,-0.1837,-0.1843,-0.1848,-0.1934,-0.1873,-0.1875,-0.1876,-0.1993,-0.1995,-0.1997,0,0,0,0,0,0,-0.1612,-0.1619,-0.1686,-0.1663,-0.1673,-0.1721,-0.1731,-0.174,-0.1783,-0.1797,-0.1805,-0.1812,-0.1838,-0.1845,-0.1897,-0.1934,-0.1876,-0.1878,-0.199,-0.1993,-0.1996,-0.2055,0,0,0,0,0,0,-0.1609,-0.1617,-0.1636,-0.1662,-0.1674,-0.1732,-0.1731,-0.1741,-0.1786,-0.1791,-0.1832,-0.1837,-0.1839,-0.1894,-0.1899,-0.1936,-0.1879,-0.1988,-0.1992,-0.1995,-0.2051,-0.206,-0.2067,0,0,0,0,0,-0.1606,-0.1628,-0.1636,-0.1644,-0.1692,-0.1733,-0.1742,-0.1777,-0.1788,-0.1817,-0.1846,-0.1837,-0.192,-0.1897,-0.1903,-0.1941,-0.1986,-0.1991,-0.1995,-0.2047,-0.2058,-0.2067,0,0,0,0,0,0,-0.1606,-0.1636,-0.1645,-0.1676,-0.1712,-0.1743,-0.1775,-0.1794,-0.184,-0.1852,-0.1861,-0.1869,-0.1929,-0.1928,-0.1902,-0.1988,-0.1952,-0.1958,-0.199,-0.2,-0.2009,-0.1994,-0.1881,0,0,0,0,0,-0.1611,-0.1634,-0.1666,-0.1693,-0.1713,-0.1748,-0.1774,-0.1799,-0.1834,-0.1857,-0.1885,-0.1915,-0.1946,-0.1968,-0.1994,-0.2039,-0.2011,-0.2068,-0.2077,-0.2084,-0.2077,-0.2073,-0.2079,-0.2011,-0.2011,-0.2011,0,0,-0.1618,-0.1637,-0.1652,-0.1695,-0.1724,-0.1764,-0.1767,-0.1817,-0.1856,-0.1855,-0.1926,-0.1948,-0.1966,-0.202,-0.2047,-0.2027,-0.2089,-0.2089,-0.2095,-0.2084,-0.2078,-0.2084,-0.209,-0.2014,-0.2014,-0.2013,0,0,-0.1638,-0.1663,-0.169,-0.1723,-0.1774,-0.1796,-0.1816,-0.1867,-0.1902,-0.1964,-0.1974,-0.2019,-0.2071,-0.2091,-0.2104,-0.2173,-0.2134,-0.2188,-0.2218,-0.2215,-0.222,-0.2223,-0.2192,-0.2193,-0.2191,-0.2191,-0.2191,0,-0.165,-0.1679,-0.1707,-0.1745,-0.1774,-0.1813,-0.1853,-0.1895,-0.1959,-0.1984,-0.1999,-0.2077,-0.2103,-0.2149,-0.2181,-0.2192,-0.2169,-0.2177,-0.2223,-0.2226,-0.2229,-0.2196,-0.2196,-0.2194,-0.2194,-0.2194,-0.2193,0,-0.1683,-0.172,-0.1742,-0.1795,-0.1836,-0.1877,-0.193,-0.198,-0.2022,-0.2054,-0.2123,-0.2158,-0.2197,-0.2222,-0.2228,-0.2268,-0.2238,-0.2233,-0.2191,-0.2239,-0.2202,-0.2201,-0.2199,-0.2198,-0.2197,-0.2196,0,0,-0.1663,-0.1747,-0.1756,-0.1783,-0.1863,-0.1891,-0.1967,-0.2026,-0.2061,-0.2135,-0.217,-0.225,-0.2262,-0.2278,-0.2292,-0.2299,-0.2314,-0.228,-0.2279,-0.2237,-0.2282,-0.2101,-0.2082,-0.2313,-0.2313,-0.2313,-0.2245,0,-0.1678,-0.1738,-0.1787,-0.185,-0.1879,-0.1943,-0.2001,-0.2065,-0.2118,-0.2165,-0.2211,-0.2258,-0.2285,-0.2305,-0.2323,-0.2319,-0.2314,-0.2331,-0.2252,-0.2249,-0.2072,-0.2076,-0.2314,-0.2243,-0.2243,-0.2243,-0.2243,0,-0.1682,-0.1719,-0.1779,-0.1853,-0.1875,-0.1927,-0.2001,-0.2062,-0.2139,-0.218,-0.2235,-0.2266,-0.2315,-0.2316,-0.233,-0.2339,-0.2315,-0.2302,-0.2299,-0.2104,-0.2065,-0.2188,-0.2239,-0.224,-0.224,-0.224,-0.224,0,-0.1612,-0.1706,-0.1746,-0.1776,-0.1875,-0.1917,-0.1974,-0.2062,-0.2108,-0.2184,-0.2215,-0.2271,-0.23,-0.2297,-0.2291,-0.2316,-0.226,-0.2288,-0.2096,-0.2083,-0.2241,-0.2237,-0.2269,-0.2269,-0.2269,-0.2269,-0.2269,0,-0.1573,-0.1608,-0.1719,-0.1735,-0.1778,-0.1876,-0.1931,-0.1993,-0.2084,-0.2119,-0.2215,-0.223,-0.2299,-0.2284,-0.227,-0.2156,-0.2244,-0.2082,-0.2048,-0.2268,-0.2269,-0.2239,-0.2236,-0.2267,-0.2267,-0.2268,-0.2268,0,-0.1475,-0.1555,-0.1598,-0.1708,-0.1742,-0.177,-0.1892,-0.1925,-0.2037,-0.208,-0.2107,-0.2205,-0.2176,-0.2185,-0.216,-0.2107,-0.2027,-0.1958,-0.2159,-0.2141,-0.1864,-0.1866,-0.1753,-0.1746,-0.174,-0.1735,-0.1731,0,-0.1424,-0.144,-0.1547,-0.1566,-0.1617,-0.1687,-0.1729,-0.1867,-0.1907,-0.2039,-0.2035,-0.2063,-0.2092,-0.1904,-0.1943,-0.1847,-0.1832,-0.1792,-0.1863,-0.1829,-0.1809,-0.1821,-0.183,-0.1722,-0.172,-0.1719,-0.1717,0,-0.1315,-0.1369,-0.14,-0.144,-0.1487,-0.1534,-0.1613,-0.1629,-0.178,-0.1905,-0.1897,-0.1875,-0.1819,-0.1784,-0.1693,-0.1647,-0.1827,-0.173,-0.1744,-0.1812,-0.179,-0.1778,-0.1795,-0.1696,-0.1699,-0.1701,-0.1702,0,-0.1229,-0.122,-0.1271,-0.1289,-0.1339,-0.135,-0.1421,-0.1471,-0.1533,-0.1704,-0.1686,-0.1716,-0.1793,-0.1675,-0.1602,-0.1517,-0.1522,-0.151,-0.1536,-0.1559,-0.1524,-0.147,-0.1228,0,0,0,0,0,-0.1136,-0.111,-0.1117,-0.1127,-0.1174,-0.1205,-0.1325,-0.1414,-0.1567,-0.1507,-0.1599,-0.1537,-0.1463,-0.1488,-0.1353,-0.1495,-0.1509,-0.1336,-0.1506,-0.1581,-0.1605,-0.1581,0,0,0,0,0,0,-0.1069,-0.1069,-0.1063,-0.0986,-0.0965,-0.1007,-0.1074,-0.1192,-0.1182,-0.1343,-0.1297,-0.1428,-0.1355,-0.1477,-0.1308,-0.1309,-0.1384,-0.1366,-0.1362,-0.1568,-0.159,-0.1609,-0.1592,0,0,0,0,0]},{"header":{"parameterUnit":"m.s-1","parameterCategory":2,"la1":30.2991,"la2":30.254,"lo1":-89.0895,"lo2":-89.0444,"dy":0.0017,"dx":0.0017,"nx":28,"ny":28,"refTime":"2025-06-09T03:00:00:Z","depth":"4","parameterNumber":3,"parameterNumberName":"V-component_of_CURRENTS"},"data":[0,0,0,0,0,0,0,0,0,0,0,0,0,0,0,0,0,0,0,0,0,0,0,0,0,0,0,0,0,0,0,0,0,0,0,0,0,0,0,0,0,0,0,0,0,0,0,0,0,0,0,0,0,0,0,0,0,0,-0.0227,-0.0227,0,-0.0165,-0.0164,-0.0164,-0.0131,-0.0131,-0.0131,-0.0131,-0.0042,-0.0039,-0.0037,0,0,0,0,0,0,0,0,0,0,0,0,0,-0.0269,-0.0268,-0.0228,-0.0227,-0.0226,-0.0165,-0.0164,-0.0164,-0.0131,-0.0131,-0.0131,-0.0131,-0.0042,-0.004,-0.0037,0,0,0,0,0,0,0,0,0,0,0,0,0,-0.0233,-0.0268,-0.0228,-0.0202,-0.02,-0.0165,-0.0164,-0.0163,-0.0131,-0.0131,-0.0131,-0.0131,-0.0043,-0.004,-0.0037,-0.0017,0,0,-0.0026,-0.0024,0,0,0,0,0,0,0,0,-0.0235,-0.0232,-0.0207,-0.0204,-0.0201,-0.0156,-0.0146,-0.0113,-0.0131,-0.0157,-0.0131,-0.0131,-0.0077,-0.0071,-0.006,-0.0012,-0.0009,-0.0026,-0.0023,-0.0022,-0.0021,0,0,0,0,0,0,0,-0.0238,-0.0234,-0.0203,-0.0206,-0.0202,-0.0177,-0.0172,-0.014,-0.0118,-0.0155,-0.0152,-0.0145,-0.0076,-0.0063,-0.0058,-0.0007,-0.0026,-0.0023,-0.002,-0.0019,0.009,0.0091,0,0,0,0,0,0,-0.0248,-0.0236,-0.0205,-0.0201,-0.0218,-0.0177,-0.0171,-0.017,-0.0119,-0.0111,-0.0145,-0.0144,-0.0069,-0.0062,-0.0054,-0.0024,-0.0022,-0.0019,-0.0017,0.0089,0.009,0.0091,0,0,0,0,0,0,-0.0249,-0.0246,-0.0207,-0.0217,-0.021,-0.0176,-0.0175,-0.0169,-0.0158,-0.0112,-0.0104,-0.0141,-0.0069,-0.0059,-0.002,-0.002,-0.0017,-0.0014,0.0088,0.009,0.0091,0.0035,0,0,0,0,0,0,-0.0251,-0.0247,-0.0253,-0.0218,-0.021,-0.0194,-0.0175,-0.0168,-0.0154,-0.0152,-0.0105,-0.0097,-0.0068,-0.0025,-0.0016,-0.0015,-0.0011,0.0087,0.0089,0.009,0.0036,0.0034,0.0033,0,0,0,0,0,-0.0253,-0.0262,-0.0254,-0.025,-0.0219,-0.0194,-0.0188,-0.0163,-0.0154,-0.0152,-0.0114,-0.0099,-0.0009,-0.0022,-0.0012,-0.001,0.0087,0.0088,0.009,0.0036,0.0034,0.0033,0,0,0,0,0,0,-0.0281,-0.0259,-0.0249,-0.0251,-0.0227,-0.0188,-0.0187,-0.0167,-0.0136,-0.0134,-0.009,-0.0078,-0.0042,-0.0014,-0.0029,0.003,0.0042,0.0046,-0.0002,-0.0004,-0.0005,-0.0039,-0.0008,0,0,0,0,0,-0.0291,-0.0295,-0.0263,-0.0265,-0.0257,-0.0222,-0.021,-0.0193,-0.0159,-0.0146,-0.011,-0.0068,-0.0026,-0.0007,0.0033,0.0061,0.0085,0.0072,0.007,0.0069,0.005,0.0074,0.0071,0.0097,0.0097,0.0097,0,0,-0.0302,-0.0291,-0.0293,-0.0272,-0.0253,-0.0246,-0.0215,-0.0202,-0.0192,-0.0141,-0.0117,-0.0072,-0.0017,0.0017,0.0035,0.0038,0.0084,0.0071,0.0069,0.0051,0.0075,0.0072,0.007,0.0098,0.0098,0.0098,0,0,-0.0329,-0.0317,-0.0332,-0.0315,-0.0292,-0.0267,-0.0266,-0.0228,-0.021,-0.0178,-0.0134,-0.0094,-0.0033,0.0003,0.003,0.0045,0.0077,0.0065,0.0024,0.0047,0.0044,0.0042,0.0104,0.0107,0.0061,0.0061,0.006,0,-0.0345,-0.0358,-0.033,-0.0336,-0.033,-0.0281,-0.0291,-0.0259,-0.0212,-0.0204,-0.0178,-0.0091,-0.0042,-0.0006,0.0005,0.0038,0.0067,0.0022,0.0041,0.004,0.0038,0.0101,0.0106,0.0058,0.0058,0.0059,0.0059,0,-0.0381,-0.0389,-0.0395,-0.0389,-0.0375,-0.0374,-0.0331,-0.0312,-0.0281,-0.0252,-0.021,-0.0138,-0.0094,-0.006,-0.0022,-0.0003,0.003,0.0036,0.0036,0.0031,0.01,0.0106,0.0055,0.0055,0.0056,0.0057,0,0,-0.0423,-0.0424,-0.0427,-0.0439,-0.0407,-0.0403,-0.0384,-0.0362,-0.036,-0.0301,-0.0293,-0.0208,-0.0177,-0.0143,-0.0085,-0.0057,-0.0018,-0.0021,-0.0019,0.0022,0.0059,0.0079,0.0088,-0.0017,-0.0017,-0.0018,0.0123,0,-0.0463,-0.0499,-0.0482,-0.0506,-0.0518,-0.0475,-0.0465,-0.0436,-0.0396,-0.037,-0.0299,-0.0262,-0.0205,-0.018,-0.0145,-0.0051,-0.0012,-0.0055,0.0072,0.0077,0.0079,0.0091,-0.0018,0.0127,0.0128,0.0129,0.013,0,-0.0508,-0.0526,-0.0568,-0.0578,-0.058,-0.0583,-0.0571,-0.0554,-0.0501,-0.047,-0.0426,-0.0363,-0.0295,-0.0251,-0.0117,-0.0149,-0.0057,0.0017,0.0024,0.0056,0.0105,0.0128,0.014,0.0139,0.0139,0.0138,0.0137,0,-0.0564,-0.0588,-0.063,-0.0632,-0.0628,-0.0642,-0.0634,-0.0596,-0.0584,-0.0535,-0.0514,-0.0435,-0.0369,-0.0278,-0.0106,-0.012,0.0049,0.005,0.0161,0.0166,0.0128,0.0129,0.0128,0.0128,0.0128,0.0127,0.0127,0,-0.0614,-0.0647,-0.0665,-0.0686,-0.0733,-0.0706,-0.0736,-0.0711,-0.0672,-0.0656,-0.0574,-0.0516,-0.0377,-0.0251,-0.0127,0.0048,0.0037,0.0153,0.0191,0.011,0.0107,0.0135,0.0134,0.0133,0.0132,0.0131,0.013,0,-0.0661,-0.0677,-0.0726,-0.0749,-0.0762,-0.0794,-0.08,-0.0807,-0.0763,-0.0731,-0.0716,-0.0567,-0.0394,-0.0232,-0.004,0.0042,0.019,0.0258,0.0193,0.0227,0.0298,0.0293,0.0369,0.0371,0.0372,0.0374,0.0375,0,-0.0687,-0.0719,-0.0777,-0.0814,-0.0829,-0.0868,-0.0888,-0.086,-0.0849,-0.0744,-0.0719,-0.0546,-0.0431,-0.013,0.0027,0.0257,0.0286,0.0349,0.0281,0.0287,0.0318,0.031,0.0303,0.0377,0.0377,0.0378,0.0378,0,-0.0727,-0.0755,-0.0794,-0.0868,-0.0912,-0.0952,-0.0967,-0.0964,-0.0906,-0.0868,-0.0704,-0.0539,-0.0323,-0.0105,0.0088,0.0246,0.0283,0.0363,0.036,0.0298,0.0297,0.0324,0.0316,0.0383,0.0382,0.0381,0.0381,0,-0.0755,-0.0794,-0.085,-0.0907,-0.0973,-0.1007,-0.1014,-0.0966,-0.0939,-0.0812,-0.0745,-0.0512,-0.0366,-0.0104,0.0071,0.0227,0.0247,0.025,0.0254,0.025,0.0162,0.0141,0.0207,0,0,0,0,0,-0.0776,-0.0821,-0.088,-0.0949,-0.101,-0.1038,-0.1049,-0.1035,-0.0977,-0.087,-0.0805,-0.0597,-0.03,-0.0151,0.0009,0.007,0.0251,0.0257,0.0249,0.0409,0.0404,0.0319,0,0,0,0,0,0,-0.0797,-0.0861,-0.0882,-0.0961,-0.1009,-0.1067,-0.1074,-0.1035,-0.0956,-0.0871,-0.0696,-0.0592,-0.0289,-0.0389,0.0005,0.0056,0.0063,0.0409,0.0411,0.0412,0.0407,0.0403,0.0314,0,0,0,0,0]}]]